INMARSAT 3-F5
1 25153U 98006B   03064.83099755  .00000135  00000-0  10000-3 0  8530
2 25153   0.4578 353.8307 0004423 227.6819 265.8219  1.00270482 18656
HOT BIRD 4
1 25237U 98013A   03055.98151369  .00000074  00000-0  10000-3 0  3309
2 25237   0.0547 293.1775 0007524 338.0934 249.5459  1.00273950 18609
NOAA 15
1 25338U 98030A   03069.54992123  .00000252  00000-0  12782-3 0   346
2 25338  98.5492  91.1581 0009601 259.7622 100.2475 14.24254055250642
RESURS O1-N4
1 25394U 98043A   03068.96027882 +.00000204 +00000-0 +10783-3 0 04708
2 25394 098.6290 146.5271 0002390 063.4397 296.7026 14.23885001242294
TMSAT
1 25396U 98043C   03068.93543127 -.00000043 +00000-0 +00000-0 0 08559
2 25396 098.6238 145.6607 0003908 091.6989 268.4642 14.23515955242284
TECHSAT 1B
1 25397U 98043D   03068.96478311 +.00000107 +00000-0 +66905-4 0 01367
2 25397 098.6183 144.5441 0002182 088.8517 271.2911 14.22964511242259
ASTRA 2A
1 25462U 98050A   03064.00000000  .00000141  00000-0  00000+0 0  5366
2 25462   0.0385 308.7109 0004824 280.8620 320.9573  1.00272094 16583
EUTELSAT W2
1 25491U 98056A   03065.98472802  .00000102  00000-0  00000+0 0  5856
2 25491   0.0087 231.6351 0003538 114.2061 188.9050  1.00273114 16213
HOT BIRD 5
1 25495U 98057A   03063.86782987  .00000123  00000-0  00000+0 0  5037
2 25495   0.0348 115.8222 0002188 119.7671 265.0383  1.00131550 16161
SEDSAT 1
1 25509U 98061B   03068.32547706  .00000675  00000-0  12505-3 0  7976
2 25509  31.4296  47.2364 0357237 106.5864 257.4275 14.27455969227994
PAN SAT
1 25520U 98064B   03068.28118827 +.00003813 +00000-0 +19436-3 0 06533
2 25520 028.4563 099.1984 0006162 193.3688 166.6723 15.13982344240420
ISS (ZARYA)
1 25544U 98067A   03069.52704191  .00028388  00000-0  35506-3 0  7659
2 25544  51.6347 155.7627 0011737 299.7455 182.6897 15.59504681245614
ORSTED
1 25635U 99008B   03068.98815849  .00001192  00000-0  30998-3 0  8507
2 25635  96.4524  50.5775 0143698 267.7726  90.7010 14.44879914212744
SUNSAT
1 25636U 99008C   03068.92530847 +.00000577 +00000-0 +15977-3 0 07408
2 25636 096.4565 049.1474 0147588 274.6004 083.8348 14.42974907212606
UOSAT 12
1 25693U 99021A   03069.12581192  .00000665  00000-0  11487-3 0  7745
2 25693  64.5595 310.9280 0022098 314.8944  45.0385 14.76413587209145
FENGYUN 1C
1 25730U 99025A   03069.56881902 -.00000003  00000-0  21739-4 0  7841
2 25730  98.6328  93.2183 0013755 308.5679  51.4260 14.11736234197456
ASTRA 1H
1 25785U 99033A   03064.00000000  .00000111  00000-0  10000-3 0  3748
2 25785   0.0122 319.8851 0002995  65.1991 156.4596  1.00273184 13641
TERRA
1 25994U 99068A   03069.22665529 -.00000252  00000-0 -45903-4 0  7686
2 25994  98.1972 145.1421 0000942  91.0458 269.0848 14.57089532171535
JAWSAT
1 26061U 00004A   03068.85468473  .00000724  00000-0  25808-3 0  7831
2 26061 100.2025 129.4959 0034838 224.5147 135.3234 14.37848198163304
OPAL
1 26063U 00004C   03068.72298333  .00000213  00000-0  94015-4 0  7374
2 26063 100.2070 126.7725 0036702 233.0850 126.6965 14.35489321163137
ASUSAT
1 26065U 00004E   03068.54008075  .00000263  00000-0  11097-3 0  7517
2 26065 100.2086 126.7131 0036998 234.1851 125.5889 14.35517912163105
GOES 11
1 26352U 00022A   03068.51136664 -.00000029  00000-0  10000-3 0   572
2 26352   0.1873 101.7936 0003256 206.0585 289.2370  1.00267417 10424
EUTELSAT W4
1 26369U 00028A   03064.82065028  .00000150  00000-0  00000+0 0  3584
2 26369   0.0472 341.7393 0002698 358.9077 153.9803  1.00272472 10202
FENGYUN 2B
1 26382U 00032A   03069.24921484 -.00000325  00000-0  00000+0 0  8098
2 26382   0.5156 288.7662 0001553 206.6890 226.1435  1.00266780  9916
EUTELSAT W1
1 26487U 00052A   03065.89376720  .00000066  00000-0  10000-3 0  3664
2 26487   0.0274 285.7402 0003825  55.4199 154.7436  1.00274466  9189
ASTRA 2B
1 26494U 00054A   03064.00000000  .00000141  00000-0  00000+0 0  2579
2 26494   0.0178 354.5658 0005000 302.8402 253.0807  1.00276704  9060
NOAA 16
1 26536U 00055A   03069.42419802  .00000198  00000-0  13283-3 0  2407
2 26536  98.9051  17.5644 0009783 248.6176 111.3973 14.11915435126956
SAUDISAT 1A
1 26545U 00057A   03069.01935598  .00001621  00000-0  23333-3 0  4220
2 26545  64.5603 332.1415 0050736 235.6617 123.9623 14.79035788132091
UNISAT
1 26547U 00057C   03068.59000186 +.00002950 +00000-0 +39832-3 0 04429
2 26547 064.5593 335.6188 0058030 237.4102 122.1409 14.79834885132009
TIUNGSAT 1
1 26548U 00057D   03068.74168139  .00002147  00000-0  28807-3 0  4259
2 26548  64.5597 325.6709 0044198 234.7837 124.9092 14.81339806132203
SAUDISAT 1B
1 26549U 00057E   03069.20475922  .00001664  00000-0  24416-3 0  7127
2 26549  64.5502 335.7825 0055153 235.5790 124.0094 14.77971355132042
AMSAT OSCAR 40
1 26609U 00072B   03066.11783278 -.00000244  00000-0  10000-3 0  3140
2 26609   8.2200  61.4070 7949170 150.5515 300.1580  1.25596136 10796
GOES 12
1 26871U 01031A   03066.33024319 -.00000197  00000-0  10000-3 0  8552
2 26871   0.2857 276.3231 0002420  15.3254 262.7439  1.00360068  6003
PCSAT
1 26931U 01043C   03068.91076250 +.00000297 +00000-0 +14946-3 0 04233
2 26931 067.0461 205.8169 0005156 269.1964 090.8547 14.29126232075111
SAPPHIRE
1 26932U 01043D   03068.95638807 +.00000183 +00000-0 +10438-3 0 04179
2 26932 067.0523 205.3991 0004279 248.0780 111.9865 14.29301938075145
ENVISAT
1 27386U 02009A   03068.96625040 -.00000616 +00000-0 -21229-3 0 09877
2 27386 098.5524 137.2418 0001033 084.7572 275.3730 14.32238263053523
IDEFIX/ARIANE 42P
1 27422U 02021B   03069.22176649  .00000345  00000-0  15694-3 0  2518
2 27422  98.6927 148.3288 0013424  92.0163 268.2567 14.27980980 44269
FENGYUN 1D
1 27431U 02024B   03069.19142215 -.00000030  00000-0  74583-5 0  2335
2 27431  98.7639 117.6426 0016307  67.6665 292.6232 14.09178933 42132
NOAA 17
1 27453U 02032A   03069.53050485  .00000332  00000-0  16592-3 0  3321
2 27453  98.7519 140.6334 0011162 302.2344  57.7753 14.23306179 36809
HOT BIRD 6
1 27499U 02038A   03054.87288413  .00000075  00000-0  10000-3 0   703
2 27499   0.0150 173.7812 0009015 197.5701 109.1063  1.00270140  1885
RUBIN 2
1 27605U 02058A   03069.22241483  .00001005  00000-0  18191-3 0   786
2 27605  64.5509 137.5567 0035459 104.8140 255.6881 14.71405105 11701
